Volver al catálogo

STARLINK-31123

ActivoComunicacionesVLEO
NORAD 58775·PAYLOAD·🇺🇸 United States

Lanzado Jan 14, 2024 desde Vandenberg Space Force Base

Loading…

Próximos Pases (próximas 24 horas)

TLE

ActualizadoSource: CelesTrak SupGP

Época: Sep 15, 2026, 02:34 UTC

1 58775C 24011L   26258.10743056 -.00071215  00000+0 -21041-2 0  2584
2 58775  53.1579 210.5805 0001389  90.3988  34.3626 15.34424524    12

Sigue STARLINK-31123 en tiempo real con AllMySat

Download on the App Store